• In Belarus
  • List of Countries
  • For 7 days
  • Water Temperature
  • Satellite Maps
  • Weather Map
  • Weather Widgets
  • user-avatar
    Login

    Hourly Weather Chubivka

    Today, 18 December, Monday

    Time Temperature Precipitation Wind Pressure Humidity
    00:00 -2°C° 0.7 mm 7 mps 739 mmHg 83%
    01:00 -2°C° 0.7 mm 7 mps 738 mmHg 85%
    02:00 -1°C° 0 mm 5 mps 738 mmHg 88%
    03:00 -3°C° 0.9 mm 6 mps 738 mmHg 88%
    04:00 -3°C° 0.9 mm 7 mps 737 mmHg 89%
    05:00 -4°C° 0.9 mm 8 mps 737 mmHg 90%
    06:00 -4°C° 0.5 mm 8 mps 737 mmHg 90%
    07:00 -4°C° 0.5 mm 7 mps 737 mmHg 90%
    08:00 -4°C° 0 mm 7 mps 737 mmHg 90%
    09:00 -4°C° 0.3 mm 7 mps 737 mmHg 89%
    10:00 -4°C° 0.3 mm 7 mps 738 mmHg 89%
    11:00 -4°C° 0.3 mm 7 mps 738 mmHg 88%
    12:00 -4°C° 0.1 mm 7 mps 738 mmHg 88%
    13:00 -3°C° 0.1 mm 7 mps 739 mmHg 87%
    14:00 -3°C° 0.1 mm 7 mps 739 mmHg 86%
    15:00 -4°C° 0 mm 7 mps 739 mmHg 86%
    16:00 -4°C° 0 mm 6 mps 739 mmHg 86%
    17:00 -4°C° 0 mm 6 mps 740 mmHg 86%
    18:00 -4°C° 0 mm 6 mps 740 mmHg 86%
    19:00 -4°C° 0 mm 6 mps 740 mmHg 86%
    20:00 -4°C° 0 mm 6 mps 740 mmHg 86%
    21:00 -4°C° 0 mm 6 mps 741 mmHg 86%
    22:00 -4°C° 0 mm 6 mps 741 mmHg 86%
    23:00 -5°C° 0 mm 6 mps 741 mmHg 85%

    Tomorrow, 19 December, Tuesday

    Time Temperature Precipitation Wind Pressure Humidity
    00:00 -5°C° 0 mm 6 mps 741 mmHg 86%
    01:00 -5°C° 0 mm 5 mps 741 mmHg 86%
    02:00 -6°C° 0 mm 5 mps 742 mmHg 87%
    03:00 -6°C° 0 mm 5 mps 742 mmHg 87%
    04:00 -6°C° 0 mm 5 mps 742 mmHg 86%
    05:00 -5°C° 0 mm 5 mps 743 mmHg 86%
    06:00 -6°C° 0 mm 5 mps 743 mmHg 86%
    07:00 -6°C° 0 mm 5 mps 743 mmHg 86%
    08:00 -6°C° 0 mm 5 mps 743 mmHg 86%
    09:00 -5°C° 0 mm 5 mps 744 mmHg 84%
    10:00 -5°C° 0 mm 6 mps 744 mmHg 83%
    11:00 -4°C° 0 mm 6 mps 745 mmHg 81%
    12:00 -4°C° 0 mm 6 mps 745 mmHg 80%
    13:00 -4°C° 0 mm 6 mps 745 mmHg 79%
    14:00 -4°C° 0 mm 6 mps 745 mmHg 79%
    15:00 -4°C° 0 mm 6 mps 746 mmHg 79%
    16:00 -4°C° 0 mm 5 mps 746 mmHg 79%
    17:00 -4°C° 0 mm 5 mps 746 mmHg 79%
    18:00 -4°C° 0 mm 5 mps 746 mmHg 80%
    19:00 -4°C° 0 mm 4 mps 747 mmHg 81%
    20:00 -4°C° 0 mm 4 mps 747 mmHg 81%
    21:00 -4°C° 0 mm 4 mps 747 mmHg 82%
    22:00 -4°C° 0 mm 4 mps 747 mmHg 82%
    23:00 -5°C° 0 mm 4 mps 747 mmHg 83%

    Day after tomorrow, 20 December, Wednesday

    Time Temperature Precipitation Wind Pressure Humidity
    00:00 -5°C° 0 mm 4 mps 747 mmHg 83%
    01:00 -5°C° 0 mm 4 mps 747 mmHg 83%
    02:00 -5°C° 0 mm 4 mps 747 mmHg 83%
    03:00 -5°C° 0 mm 4 mps 747 mmHg 83%
    04:00 -5°C° 0 mm 4 mps 747 mmHg 83%
    05:00 -5°C° 0 mm 4 mps 747 mmHg 84%
    06:00 -5°C° 0 mm 4 mps 747 mmHg 84%
    07:00 -5°C° 0 mm 4 mps 747 mmHg 85%
    08:00 -5°C° 0 mm 4 mps 747 mmHg 86%
    09:00 -5°C° 0 mm 4 mps 748 mmHg 84%
    10:00 -4°C° 0 mm 4 mps 748 mmHg 82%
    11:00 -4°C° 0 mm 5 mps 748 mmHg 81%
    12:00 -3°C° 0 mm 4 mps 748 mmHg 80%
    13:00 -3°C° 0 mm 4 mps 748 mmHg 79%
    14:00 -3°C° 0 mm 4 mps 748 mmHg 79%
    15:00 -2°C° 0 mm 3 mps 748 mmHg 81%
    16:00 -4°C° 0 mm 3 mps 748 mmHg 84%
    17:00 -3°C° 0 mm 2 mps 748 mmHg 86%
    18:00 -4°C° 0 mm 2 mps 749 mmHg 86%
    19:00 -4°C° 0 mm 2 mps 749 mmHg 86%
    20:00 -4°C° 0 mm 2 mps 749 mmHg 86%
    21:00 -4°C° 0 mm 2 mps 750 mmHg 85%
    22:00 -4°C° 0 mm 2 mps 750 mmHg 84%
    23:00 -4°C° 0 mm 2 mps 750 mmHg 84%

    21 December, Thursday

    Time Temperature Precipitation Wind Pressure Humidity
    00:00 -4°C° 0 mm 2 mps 750 mmHg 83%
    01:00 -4°C° 0 mm 2 mps 750 mmHg 82%
    02:00 -4°C° 0 mm 2 mps 750 mmHg 81%
    03:00 -4°C° 0 mm 2 mps 750 mmHg 81%
    04:00 -4°C° 0 mm 2 mps 750 mmHg 81%
    05:00 -5°C° 0 mm 2 mps 750 mmHg 81%
    06:00 -5°C° 0 mm 2 mps 750 mmHg 81%
    07:00 -5°C° 0 mm 2 mps 750 mmHg 81%
    08:00 -5°C° 0 mm 2 mps 751 mmHg 81%
    09:00 -4°C° 0 mm 2 mps 751 mmHg 79%
    10:00 -3°C° 0 mm 2 mps 751 mmHg 76%
    11:00 -3°C° 0 mm 2 mps 751 mmHg 74%
    12:00 -2°C° 0 mm 2 mps 750 mmHg 74%
    13:00 -2°C° 0 mm 2 mps 750 mmHg 75%
    14:00 -2°C° 0 mm 2 mps 749 mmHg 75%
    15:00 -3°C° 0 mm 2 mps 749 mmHg 78%
    16:00 -3°C° 0 mm 2 mps 749 mmHg 81%
    17:00 -4°C° 0 mm 2 mps 749 mmHg 84%
    18:00 -4°C° 0 mm 2 mps 748 mmHg 85%
    19:00 -5°C° 0 mm 2 mps 748 mmHg 86%
    20:00 -3°C° 0 mm 1 mps 748 mmHg 87%
    21:00 -5°C° 0 mm 2 mps 748 mmHg 87%
    22:00 -5°C° 0 mm 2 mps 747 mmHg 88%
    23:00 -5°C° 0 mm 2 mps 747 mmHg 88%

    22 December, Friday

    Time Temperature Precipitation Wind Pressure Humidity
    00:00 -5°C° 0 mm 2 mps 746 mmHg 88%
    01:00 -4°C° 0 mm 1 mps 746 mmHg 88%
    02:00 -4°C° 0 mm 1 mps 745 mmHg 88%
    03:00 -4°C° 0 mm 1 mps 745 mmHg 87%
    04:00 -4°C° 0 mm 1 mps 744 mmHg 86%
    05:00 -4°C° 0 mm 1 mps 744 mmHg 86%
    06:00 -6°C° 0 mm 2 mps 744 mmHg 85%
    07:00 -6°C° 0 mm 2 mps 744 mmHg 85%
    08:00 -6°C° 0 mm 2 mps 744 mmHg 84%
    09:00 -6°C° 0 mm 3 mps 743 mmHg 81%
    10:00 -5°C° 0 mm 3 mps 743 mmHg 78%
    11:00 -4°C° 0 mm 3 mps 743 mmHg 75%
    12:00 -3°C° 0 mm 4 mps 742 mmHg 74%
    13:00 -3°C° 0 mm 4 mps 742 mmHg 74%
    14:00 -2°C° 0 mm 5 mps 741 mmHg 73%
    15:00 -4°C° 0.1 mm 5 mps 741 mmHg 76%
    16:00 -4°C° 0.1 mm 5 mps 741 mmHg 79%
    17:00 -4°C° 0.1 mm 5 mps 741 mmHg 82%
    18:00 -4°C° 0 mm 5 mps 741 mmHg 82%
    19:00 -4°C° 0 mm 5 mps 741 mmHg 82%
    20:00 -4°C° 0 mm 5 mps 740 mmHg 82%
    21:00 -4°C° 0 mm 5 mps 740 mmHg 82%
    22:00 -4°C° 0 mm 5 mps 740 mmHg 82%
    23:00 -4°C° 0 mm 5 mps 740 mmHg 83%

    23 December, Saturday

    Time Temperature Precipitation Wind Pressure Humidity
    00:00 -4°C° 0 mm 5 mps 739 mmHg 82%
    01:00 -4°C° 0 mm 5 mps 739 mmHg 82%
    02:00 -4°C° 0 mm 5 mps 739 mmHg 82%
    03:00 -4°C° 0 mm 5 mps 739 mmHg 84%
    04:00 -4°C° 0 mm 5 mps 738 mmHg 86%
    05:00 -4°C° 0 mm 5 mps 738 mmHg 88%
    06:00 -4°C° 0.1 mm 5 mps 738 mmHg 88%
    07:00 -4°C° 0.1 mm 5 mps 738 mmHg 89%
    08:00 -4°C° 0.1 mm 5 mps 738 mmHg 90%
    09:00 -4°C° 0.1 mm 5 mps 739 mmHg 88%
    10:00 -2°C° 0.1 mm 5 mps 739 mmHg 86%
    11:00 -2°C° 0.1 mm 5 mps 739 mmHg 84%
    12:00 -2°C° 0 mm 4 mps 739 mmHg 83%
    13:00 -2°C° 0 mm 4 mps 738 mmHg 82%
    14:00 -1°C° 0 mm 3 mps 738 mmHg 80%
    15:00 -2°C° 0 mm 3 mps 738 mmHg 83%
    16:00 -3°C° 0 mm 2 mps 738 mmHg 85%
    17:00 -4°C° 0 mm 2 mps 738 mmHg 87%
    18:00 -4°C° 0 mm 2 mps 739 mmHg 88%
    19:00 -4°C° 0 mm 2 mps 739 mmHg 89%
    20:00 -2°C° 0 mm 1 mps 739 mmHg 90%
    21:00 -2°C° 0 mm 1 mps 739 mmHg 91%
    22:00 -2°C° 0 mm 1 mps 740 mmHg 91%
    23:00 -2°C° 0 mm 1 mps 740 mmHg 92%
    Show more